Simultaneous Nadir Overpasses (SNOs) Predictions

Prediction of SNOs between FY3D and AQUA Satellite Orbit:

Table of predicted SNOs for the next 14.0 days since TLE Epoch: 7/9/2022
Index Date (FY3D) Time (FY3D) Lat,Lon (FY3D) SZA (FY3D ) Date (AQUA) Time (AQUA) Lat,Lon (AQUA) SZA (AQUA ) Distance(km) Time Diff (sec)
1 07/10/2022 16:53:13 75.94, -83.74 54.03 07/10/2022 16:53:17 75.93, -83.67 54.02 2.12 4
2 07/10/2022 17:43:26 -74.47, 88.01 127.63 07/10/2022 17:42:13 -74.48, 87.95 127.61 1.93 73
3 07/13/2022 07:29:44 76.51, 55.17 55.06 07/13/2022 07:30:32 76.50, 55.24 55.04 2.10 48
4 07/13/2022 08:20:00 -75.21,-133.14 126.44 07/13/2022 08:19:31 -75.22,-133.21 126.43 2.14 29
5 07/15/2022 22:56:39 -76.16, 4.70 124.95 07/15/2022 22:56:53 -76.15, 4.79 124.96 2.37 14
6 07/15/2022 23:46:56 74.76, 176.42 53.46 07/15/2022 23:45:52 74.76, 176.37 53.48 1.69 64
7 07/18/2022 13:33:05 -76.50, 144.40 124.09 07/18/2022 13:34:03 -76.50, 144.39 124.11 0.41 58
8 07/18/2022 14:23:33 75.64, -45.28 54.90 07/18/2022 14:23:12 75.64, -45.25 54.90 0.78 21
9 07/21/2022 05:00:04 76.27, 93.52 56.12 07/21/2022 05:00:26 76.26, 93.59 56.10 2.09 22



Historial Predications of SNOs between FY3D and AQUA
